Regional Weather Roundup
Issued by NWS

Home | Current Version | Previous Version | Graphics & Text | Print | Product List | Glossary Off
Versions: 1 2 3 4 5 6 7 8 9 10 11 12 13 14 15 16 17 18 19 20 21 22 23 24 25 26 27 28 29 30 31 32 33 34 35 36 37 38 39 40 41 42 43 44 45 46 47 48 49 50

000
ASUS43 KTOP 050059
RWRKS

WEATHER ROUNDUP FOR KANSAS
NATIONAL WEATHER SERVICE GOODLAND KS
800 PM CDT MON MAY 04 2015

NOTE:  "FAIR" INDICATES FEW OR NO CLOUDS BELOW 12,000 FEET WITH NO
SIGNIFICANT WEATHER AND/OR OBSTRUCTIONS TO VISIBILITY.

KSZ001>006-013>018-027>032-041>047-050200-
NORTHWEST KANSAS

CITY           SKY/WX    TMP DP  RH WIND       PRES   REMARKS
GOODLAND       MOCLDY    57  47  69 NE13      30.04F
HAYS           CLOUDY    64  54  68 NE14      29.99R
HILL CITY      CLOUDY    63  53  70 NE16      30.00F
RUSSELL        CLOUDY    65  59  81 N10       29.97R
$$

KSZ061>065-074>080-084>089-050200-
SOUTHWEST KANSAS

CITY           SKY/WX    TMP DP  RH WIND       PRES   REMARKS
DODGE CITY     TSTM      61  56  83 W15G26    29.97S
ELKHART          N/A     58  50  75 S12         N/A
GARDEN CITY    LGT RAIN  60  56  86 N12       29.98R
LIBERAL        CLOUDY    64  54  68 CALM      29.96S
$$

KSZ066>073-081>083-090>101-050200-
SOUTHEAST KANSAS

CITY           SKY/WX    TMP DP  RH WIND       PRES   REMARKS
CHANUTE        CLEAR     75  60  59 S10       29.99R
COFFEYVILLE    CLEAR     76  58  53 S13       29.98R
MEDICINE LODGE   N/A     74  60  61 S9        29.93R
NEWTON         MOCLDY    75  57  53 S15G25    29.97R
PARSONS        PTCLDY    77  60  55 S9        29.99R
WICHITA INTL   MOCLDY    76  58  53 S15       29.94R
WICHITA JABRA  MOCLDY    77  58  51 S16G25    29.95R
WINFIELD       PTCLDY    73  59  61 S10       29.97R
$$

KSZ007>012-019>026-033>040-048>060-102>105-050200-
NORTHEAST KANSAS

CITY           SKY/WX    TMP DP  RH WIND       PRES   REMARKS
CONCORDIA      LGT RAIN  65  60  84 NE14      29.98R
EMPORIA        MOCLDY    76  58  53 S13       29.97R
LAWRENCE       TSTM      65  61  87 N16       30.02R
MANHATTAN      TSTM      65  61  87 S12       29.98R
OLATHE IND     CLOUDY    70  60  70 NW15      30.03R
OLATHE EXE     CLOUDY    76  59  55 W3        30.01R
SALINA         TSTM      64  61  90 E8        29.93F FOG
TOPEKA BILLARD CLOUDY    64  59  83 NE9       30.02R
TOPEKA FORBES  CLOUDY    66  56  70 N6        30.03R
$$


USA.gov is the U.S. government's official web portal to all federal, state and local government web resources and services.